Terminal Aerodrome Forecast
Issued by NWS Bismarck, ND

Home | Current Version | Previous Version | Graphics & Text | Print | Product List | Glossary On
Versions: 1 2 3 4 5 6 7 8 9 10 11 12 13 14 15 16 17 18 19 20 21 22 23 24
000
FTUS43 KBIS 181122
TAFBIS
TAF
KBIS 181122Z 1812/1912 32005KT P6SM -SN OVC040
     FM181400 35005KT P6SM OVC035
     FM181600 35006KT P6SM BKN040
     FM190000 02007KT P6SM BKN200=

USA.gov is the U.S. government's official web portal to all federal, state and local government web resources and services.